[[{"header":{"parameterUnit":"m.s-1","parameterCategory":1,"la1":30.2991,"la2":30.254,"lo1":-89.0895,"lo2":-89.0444,"dy":0.0017,"dx":0.0017,"nx":28,"ny":28,"refTime":"2024-08-03T09:00:00:Z","depth":0,"parameterNumber":2,"parameterNumberName":"U-component_of_WINDS"},"data":[0,0,0,0,0,0,0,0,0,0,0,0,0,0,0,0,0,0,0,0,0,0,0,0,0,0,0,0,0,0,0,0,0,0,0,0,0,0,0,0,0,0,0,0,0,0,0,0,0,0,0,0,0,0,0,0,0,0,-3.9925,-3.9924,0,-3.9881,-3.9881,-3.988,-3.9704,-3.97,-3.9696,-3.9692,-3.9651,-3.9653,-3.9656,0,0,0,0,0,0,0,0,0,0,0,0,0,-3.9859,-3.9861,-3.9925,-3.9924,-3.9924,-3.9881,-3.9881,-3.988,-3.9705,-3.97,-3.9695,-3.969,-3.965,-3.9653,-3.9656,0,0,0,0,0,0,0,0,0,0,0,0,0,-3.9859,-3.9861,-3.9925,-3.9831,-3.9822,-3.9881,-3.9881,-3.988,-3.9706,-3.9699,-3.9693,-3.9688,-3.9649,-3.9653,-3.9657,-3.9804,0,0,-3.9669,-3.9671,0,0,0,0,0,0,0,0,-3.9859,-3.9861,-3.9845,-3.9837,-3.9828,-3.9792,-3.9842,-3.9855,-3.9707,-3.975,-3.9692,-3.9685,-3.9703,-3.9702,-3.9707,-3.9802,-3.9801,-3.9669,-3.9672,-3.9674,-3.9675,0,0,0,0,0,0,0,-3.9859,-3.9862,-3.9907,-3.9845,-3.9835,-3.9792,-3.9785,-3.9844,-3.9761,-3.9746,-3.9733,-3.973,-3.9697,-3.9704,-3.9705,-3.98,-3.9669,-3.9673,-3.9675,-3.9677,-4.0014,-4.0021,0,0,0,0,0,0,-3.9872,-3.9863,-3.9909,-3.9906,-3.9828,-3.9798,-3.979,-3.9809,-3.976,-3.9747,-3.9735,-3.9722,-3.97,-3.9701,-3.9703,-3.9872,-3.9674,-3.9677,-3.968,-4.0008,-4.0016,-4.0023,0,0,0,0,0,0,-3.9871,-3.9878,-3.9911,-3.9881,-3.9882,-3.9806,-3.9828,-3.9812,-3.9818,-3.9752,-3.9737,-3.9757,-3.9695,-3.9697,-3.978,-3.9869,-3.9679,-3.9683,-4.0,-4.001,-4.0019,-4.0213,0,0,0,0,0,0,-3.987,-3.9879,-3.9933,-3.9884,-3.9884,-3.9988,-3.9834,-3.9815,-3.9826,-3.9808,-3.9769,-3.9757,-3.9691,-3.9775,-3.9784,-3.9871,-3.9686,-3.9992,-4.0005,-4.0016,-4.0199,-4.0229,-4.0254,0,0,0,0,0,-3.9868,-3.999,-3.9937,-3.9943,-3.9951,-3.9994,-3.9994,-3.9915,-3.9834,-3.9888,-3.9846,-3.9758,-3.9858,-3.9785,-3.9794,-3.9883,-3.9986,-4.0001,-4.0015,-4.0186,-4.0223,-4.0254,0,0,0,0,0,0,-4.0053,-3.9982,-3.9922,-4.0031,-4.002,-3.9964,-4.003,-3.9956,-3.9968,-3.9951,-3.9852,-3.9845,-3.9943,-3.9921,-3.9842,-4.0024,-3.9907,-3.9924,-4.0034,-4.0068,-4.0095,-4.0099,-3.969,0,0,0,0,0,-4.0106,-4.0146,-4.0082,-4.0185,-4.0182,-4.0108,-4.0124,-4.0063,-4.0048,-4.0042,-4.0005,-3.9995,-4.0023,-4.0045,-4.0067,-4.0195,-4.0184,-4.0261,-4.0288,-4.0311,-4.0328,-4.0394,-4.0427,-4.0071,-4.0071,-4.0071,0,0,-4.0217,-4.0183,-4.0214,-4.0221,-4.0205,-4.0249,-4.0105,-4.0158,-4.019,-4.005,-4.0126,-4.01,-4.0081,-4.0187,-4.0232,-4.0172,-4.0423,-4.033,-4.0349,-4.0352,-4.0412,-4.0446,-4.0476,-4.0081,-4.0079,-4.0078,0,0,-4.0441,-4.042,-4.0503,-4.0489,-4.0467,-4.0416,-4.0437,-4.0392,-4.0369,-4.0443,-4.0339,-4.0377,-4.0428,-4.042,-4.0422,-4.0644,-4.0564,-4.0654,-4.0799,-4.0865,-4.0893,-4.0917,-4.0997,-4.1027,-4.0671,-4.0671,-4.0671,0,-4.0582,-4.0643,-4.0555,-4.0615,-4.0621,-4.0496,-4.058,-4.0572,-4.0559,-4.0566,-4.0499,-4.0561,-4.054,-4.0642,-4.0697,-4.0703,-4.0723,-4.0658,-4.0896,-4.0919,-4.0941,-4.1016,-4.1046,-4.0682,-4.0681,-4.068,-4.0679,0,-4.0818,-4.0862,-4.0932,-4.0921,-4.0936,-4.1008,-4.0931,-4.0956,-4.0895,-4.0853,-4.0931,-4.0901,-4.0916,-4.0935,-4.0877,-4.103,-4.0994,-4.0913,-4.0794,-4.0988,-4.1056,-4.1084,-4.0698,-4.0694,-4.0691,-4.0688,0,0,-4.1157,-4.1096,-4.1123,-4.1117,-4.1083,-4.1116,-4.1183,-4.1196,-4.122,-4.1215,-4.1269,-4.1316,-4.1241,-4.1244,-4.1183,-4.1241,-4.1419,-4.1153,-4.1151,-4.1204,-4.1587,-4.1649,-4.1683,-4.1366,-4.1371,-4.1375,-4.1589,0,-4.137,-4.1479,-4.1402,-4.1524,-4.1565,-4.1447,-4.1505,-4.1492,-4.1454,-4.1483,-4.1442,-4.1477,-4.1375,-4.1376,-4.1428,-4.1387,-4.1495,-4.137,-4.1416,-4.1419,-4.1425,-4.1719,-4.1783,-4.1986,-4.1615,-4.162,-4.1623,0,-4.1634,-4.164,-4.1767,-4.1724,-4.1738,-4.1792,-4.1798,-4.1828,-4.181,-4.1779,-4.1783,-4.1707,-4.177,-4.1654,-4.174,-4.1657,-4.1672,-4.1655,-4.1661,-4.1662,-4.1533,-4.1728,-4.2049,-4.208,-4.1664,-4.1661,-4.1658,0,-4.1869,-4.1909,-4.1989,-4.1987,-4.194,-4.1981,-4.1964,-4.194,-4.1953,-4.1959,-4.1967,-4.1981,-4.1989,-4.2002,-4.1933,-4.1854,-4.2029,-4.1906,-4.2006,-4.2008,-4.2047,-4.2046,-4.2375,-4.2058,-4.2057,-4.2057,-4.2056,0,-4.2115,-4.2197,-4.2094,-4.2144,-4.2232,-4.2144,-4.2234,-4.2205,-4.2185,-4.2227,-4.2127,-4.217,-4.2075,-4.2109,-4.2055,-4.2136,-4.214,-4.2117,-4.2102,-4.2126,-4.2129,-4.2134,-4.2118,-4.2065,-4.2063,-4.2061,-4.206,0,-4.2392,-4.2326,-4.2406,-4.2355,-4.2344,-4.2412,-4.2369,-4.2413,-4.2369,-4.2425,-4.2432,-4.2364,-4.2398,-4.233,-4.2355,-4.2319,-4.2433,-4.2395,-4.2439,-4.2427,-4.253,-4.2522,-4.2874,-4.2916,-4.2573,-4.2576,-4.2579,0,-4.2553,-4.2613,-4.2569,-4.259,-4.2577,-4.2613,-4.2625,-4.2541,-4.2558,-4.2543,-4.2591,-4.2616,-4.2632,-4.2692,-4.2645,-4.2664,-4.2627,-4.2749,-4.2629,-4.2652,-4.2629,-4.2626,-4.2632,-4.2774,-4.2778,-4.2781,-4.2784,0,-4.2847,-4.2811,-4.2833,-4.2844,-4.2862,-4.2866,-4.2864,-4.2887,-4.2798,-4.2823,-4.2856,-4.2868,-4.2894,-4.2921,-4.2929,-4.2912,-4.2835,-4.2823,-4.2846,-4.2872,-4.2894,-4.2883,-4.2506,-4.2815,-4.2812,-4.2809,-4.2808,-4.2806,-4.307,-4.3118,-4.3095,-4.3122,-4.3112,-4.3112,-4.3151,-4.3112,-4.3138,-4.3151,-4.31,-4.3145,-4.3127,-4.313,-4.3121,-4.3156,-4.3101,-4.3136,-4.3145,-4.3155,-4.3171,-4.2889,-4.3157,-4.3156,-4.3155,-4.3155,-4.3154,0,-4.3358,-4.3337,-4.3364,-4.3363,-4.3386,-4.3309,-4.3303,-4.3327,-4.3368,-4.3357,-4.3374,-4.3413,-4.3439,-4.3395,-4.3414,-4.345,-4.3415,-4.3458,-4.3454,-4.3452,-4.3219,-4.3196,-4.3486,-4.3486,-4.3486,-4.3486,-4.3486,-4.3486,-4.3511,-4.3588,-4.355,-4.3622,-4.36,-4.3643,-4.3646,-4.3646,-4.3637,-4.3684,-4.3705,-4.3675,-4.3652,-4.3668,-4.3689,-4.3675,-4.3687,-4.3743,-4.3717,-4.3501,-4.3468,-4.3437,-4.3415,-4.3746,-4.3747,-4.3947,-4.3948,-4.395]},{"header":{"parameterUnit":"m.s-1","parameterCategory":1,"la1":30.2991,"la2":30.254,"lo1":-89.0895,"lo2":-89.0444,"dy":0.0017,"dx":0.0017,"nx":28,"ny":28,"refTime":"2024-08-03T09:00:00:Z","depth":0,"parameterNumber":3,"parameterNumberName":"V-component_of_WINDS"},"data":[0,0,0,0,0,0,0,0,0,0,0,0,0,0,0,0,0,0,0,0,0,0,0,0,0,0,0,0,0,0,0,0,0,0,0,0,0,0,0,0,0,0,0,0,0,0,0,0,0,0,0,0,0,0,0,0,0,0,-2.58,-2.5801,0,-2.5911,-2.5912,-2.5913,-2.5925,-2.5924,-2.5923,-2.5922,-2.603,-2.6034,-2.6038,0,0,0,0,0,0,0,0,0,0,0,0,0,-2.5594,-2.5597,-2.58,-2.5801,-2.5803,-2.591,-2.5912,-2.5913,-2.5926,-2.5924,-2.5923,-2.5922,-2.6029,-2.6034,-2.6038,0,0,0,0,0,0,0,0,0,0,0,0,0,-2.5691,-2.5599,-2.58,-2.5822,-2.5825,-2.591,-2.5912,-2.5914,-2.5926,-2.5924,-2.5923,-2.5921,-2.6028,-2.6033,-2.6039,-2.6108,0,0,-2.6057,-2.6059,0,0,0,0,0,0,0,0,-2.5686,-2.5699,-2.5817,-2.5821,-2.5824,-2.5903,-2.5879,-2.5979,-2.5926,-2.5887,-2.5922,-2.592,-2.5989,-2.5998,-2.6022,-2.6113,-2.6118,-2.6057,-2.6061,-2.6063,-2.6065,0,0,0,0,0,0,0,-2.5679,-2.5694,-2.5844,-2.5819,-2.5823,-2.5824,-2.5837,-2.5898,-2.5946,-2.5891,-2.5892,-2.5905,-2.599,-2.6016,-2.6025,-2.6119,-2.6057,-2.6062,-2.6066,-2.6068,-2.6271,-2.6272,0,0,0,0,0,0,-2.5669,-2.5689,-2.584,-2.5847,-2.575,-2.583,-2.5843,-2.5879,-2.5945,-2.5954,-2.5906,-2.5905,-2.6007,-2.6018,-2.6028,-2.6112,-2.6063,-2.6069,-2.6072,-2.6269,-2.6271,-2.6273,0,0,0,0,0,0,-2.5665,-2.5682,-2.5836,-2.5768,-2.5788,-2.5835,-2.5875,-2.5882,-2.5908,-2.5957,-2.5965,-2.5924,-2.6006,-2.602,-2.6088,-2.6116,-2.6072,-2.6077,-2.6267,-2.6269,-2.6272,-2.6282,0,0,0,0,0,0,-2.5659,-2.5681,-2.5709,-2.5769,-2.5791,-2.5895,-2.5877,-2.5885,-2.5919,-2.5918,-2.5976,-2.5984,-2.6006,-2.6079,-2.6094,-2.6124,-2.6081,-2.6264,-2.6268,-2.6271,-2.6279,-2.6284,-2.6289,0,0,0,0,0,-2.5651,-2.5706,-2.571,-2.5728,-2.5828,-2.5897,-2.5909,-2.5935,-2.5921,-2.5949,-2.598,-2.5982,-2.6111,-2.6086,-2.6103,-2.6135,-2.6262,-2.6267,-2.6271,-2.6277,-2.6283,-2.6289,0,0,0,0,0,0,-2.5647,-2.5715,-2.572,-2.5796,-2.5841,-2.5899,-2.5935,-2.5941,-2.599,-2.5987,-2.6015,-2.6028,-2.6094,-2.6121,-2.6092,-2.6204,-2.6185,-2.6193,-2.6184,-2.6191,-2.6196,-2.6187,-2.6086,0,0,0,0,0,-2.5655,-2.5708,-2.5763,-2.5825,-2.5848,-2.5887,-2.5918,-2.5934,-2.5981,-2.5999,-2.6035,-2.6079,-2.6129,-2.6161,-2.621,-2.6283,-2.6295,-2.6313,-2.6318,-2.6322,-2.6328,-2.6367,-2.6375,-2.6287,-2.6287,-2.6287,0,0,-2.5672,-2.5716,-2.5747,-2.5826,-2.5862,-2.5913,-2.5903,-2.5958,-2.5996,-2.6007,-2.6073,-2.6101,-2.6152,-2.6222,-2.6255,-2.6246,-2.6355,-2.6327,-2.633,-2.6334,-2.6372,-2.638,-2.6387,-2.629,-2.6289,-2.6289,0,0,-2.573,-2.5769,-2.5824,-2.5861,-2.5917,-2.5943,-2.5956,-2.6013,-2.6032,-2.61,-2.6109,-2.6153,-2.6239,-2.6275,-2.6304,-2.6373,-2.6377,-2.6388,-2.6414,-2.6452,-2.6459,-2.6465,-2.6488,-2.6497,-2.6394,-2.6394,-2.6394,0,-2.5743,-2.5823,-2.5851,-2.5907,-2.594,-2.5954,-2.6009,-2.6042,-2.611,-2.6132,-2.6123,-2.6231,-2.6266,-2.6343,-2.636,-2.6384,-2.6398,-2.6382,-2.6456,-2.6462,-2.6468,-2.6491,-2.65,-2.6395,-2.6395,-2.6395,-2.6395,0,-2.5837,-2.5892,-2.5929,-2.5996,-2.6034,-2.6089,-2.6123,-2.6158,-2.617,-2.6196,-2.6263,-2.6306,-2.6363,-2.6383,-2.6395,-2.6462,-2.6455,-2.645,-2.6432,-2.6477,-2.6499,-2.6508,-2.6397,-2.6396,-2.6396,-2.6396,0,0,-2.5894,-2.5976,-2.5989,-2.6019,-2.6081,-2.6123,-2.6178,-2.6235,-2.6263,-2.631,-2.6355,-2.6427,-2.6423,-2.6456,-2.6472,-2.6505,-2.6555,-2.6496,-2.6497,-2.6504,-2.663,-2.6632,-2.6642,-2.6558,-2.656,-2.6562,-2.6625,0,-2.5958,-2.6057,-2.6083,-2.6167,-2.6217,-2.623,-2.6277,-2.6319,-2.6345,-2.639,-2.6417,-2.6468,-2.6459,-2.6479,-2.6512,-2.6542,-2.6581,-2.6538,-2.6598,-2.66,-2.6585,-2.6654,-2.6657,-2.6715,-2.6634,-2.6636,-2.6637,0,-2.6045,-2.6094,-2.6183,-2.6238,-2.626,-2.6302,-2.6356,-2.6399,-2.6446,-2.6463,-2.6499,-2.6512,-2.6567,-2.6546,-2.6621,-2.6592,-2.6618,-2.6636,-2.6639,-2.6645,-2.6621,-2.666,-2.6734,-2.6743,-2.665,-2.6649,-2.6648,0,-2.6076,-2.6165,-2.6229,-2.6255,-2.6321,-2.635,-2.6378,-2.6424,-2.6456,-2.6503,-2.6524,-2.6576,-2.6604,-2.6642,-2.6668,-2.6651,-2.674,-2.6722,-2.6754,-2.6753,-2.6771,-2.6769,-2.6849,-2.679,-2.679,-2.679,-2.6789,0,-2.6144,-2.6197,-2.6244,-2.6284,-2.6343,-2.6372,-2.643,-2.6458,-2.6499,-2.6542,-2.6557,-2.6597,-2.6629,-2.6673,-2.6693,-2.6751,-2.6764,-2.6777,-2.6781,-2.6775,-2.6773,-2.6792,-2.6788,-2.6792,-2.6791,-2.6791,-2.679,0,-2.6188,-2.6222,-2.6293,-2.635,-2.6365,-2.6407,-2.6454,-2.6492,-2.6518,-2.6573,-2.6587,-2.6628,-2.668,-2.671,-2.6776,-2.6789,-2.6853,-2.6856,-2.6838,-2.684,-2.6869,-2.6865,-2.6963,-2.6976,-2.6909,-2.6909,-2.691,0,-2.6229,-2.627,-2.6332,-2.6363,-2.6392,-2.6442,-2.6475,-2.6505,-2.6539,-2.6595,-2.6626,-2.6679,-2.6724,-2.6807,-2.684,-2.689,-2.6894,-2.6925,-2.6901,-2.6893,-2.6893,-2.6889,-2.6893,-2.6928,-2.6929,-2.6929,-2.693,0,-2.6296,-2.631,-2.6359,-2.6414,-2.6454,-2.6497,-2.6541,-2.6565,-2.6601,-2.6638,-2.6693,-2.6727,-2.6795,-2.6847,-2.69,-2.6927,-2.6934,-2.6937,-2.6947,-2.694,-2.6927,-2.6933,-2.6848,-2.6934,-2.6934,-2.6933,-2.6933,-2.6933,-2.6339,-2.6376,-2.6425,-2.6478,-2.6514,-2.6554,-2.6592,-2.6624,-2.667,-2.6729,-2.6743,-2.68,-2.6844,-2.6916,-2.6944,-2.6988,-2.6982,-2.6996,-2.7,-2.7003,-2.7003,-2.6921,-2.6998,-2.6997,-2.6997,-2.6997,-2.6997,0,-2.6405,-2.6438,-2.6487,-2.6547,-2.6589,-2.6594,-2.6642,-2.6675,-2.6726,-2.6768,-2.6812,-2.6874,-2.6924,-2.6962,-2.7014,-2.7041,-2.7045,-2.7053,-2.7051,-2.7057,-2.7006,-2.6992,-2.7049,-2.7049,-2.7049,-2.7049,-2.7049,-2.7049,-2.6445,-2.6507,-2.6528,-2.6608,-2.6639,-2.6697,-2.6723,-2.676,-2.6793,-2.6862,-2.6905,-2.693,-2.697,-2.7025,-2.7071,-2.708,-2.7098,-2.7105,-2.7115,-2.7066,-2.7061,-2.7055,-2.7042,-2.7109,-2.7109,-2.7162,-2.7163,-2.7163]}]]